Theta_e
339 340 341 341 341 342 342 341 341 340 339 339 338 337 336 336 336 335 336 337 338 338 338 338 336 335 336 331 328 327 323 324 324 324 329 326 318 312 310 316 323 325 327 329 330 330 330 328 327 326 326 326 326 328 330 330 332 334 334 332 331 330
339 340 341 341 341 341 341 341 340 339 339 339 338 337 336 335 334 335 337 337 337 338 339 338 336 337 337 330 327 326 324 326 327 326 330 334 331 321 311 310 316 322 325 327 327 329 332 330 327 327 326 325 325 330 336 333 330 331 333 332 330 331
339 339 339 340 341 341 341 340 339 339 339 338 337 336 336 335 335 337 338 338 338 339 341 340 338 340 339 333 331 330 328 330 331 329 330 334 336 332 324 315 312 316 320 323 327 332 336 334 333 334 334 333 330 332 337 336 333 333 334 333 332 333
339 338 338 338 339 341 339 338 339 339 339 338 337 337 338 338 338 338 338 339 340 339 340 340 340 341 339 335 336 337 335 335 335 335 334 334 335 336 336 329 318 314 317 323 331 335 338 338 338 339 338 337 335 334 336 337 337 336 335 335 333 332
339 338 337 335 336 338 337 337 338 338 338 337 338 340 340 339 340 340 338 338 339 338 337 336 336 337 338 337 338 339 338 337 336 336 336 335 334 335 337 337 331 324 323 327 332 333 335 337 338 339 338 336 335 335 336 336 337 335 334 335 334 333
338 336 332 331 334 336 337 337 337 337 337 338 339 339 339 339 340 340 337 336 338 338 337 337 337 337 338 339 339 338 338 338 337 337 336 335 335 335 336 337 336 333 330 329 330 330 331 333 336 337 336 334 333 334 335 335 336 335 334 333 333 334
338 334 331 333 335 336 338 338 338 337 336 337 338 338 338 339 339 338 337 337 338 338 339 339 339 339 338 339 339 338 338 339 338 338 337 336 335 335 336 336 337 336 333 331 330 330 330 332 334 334 333 332 332 332 333 334 333 333 333 333 334 334
339 336 335 336 336 336 338 338 337 337 337 337 338 338 339 339 337 337 338 339 339 339 339 339 339 339 338 338 339 338 338 338 339 338 337 337 337 337 336 337 337 337 336 335 334 333 333 333 333 333 333 333 333 333 334 334 333 333 333 334 334 334
339 338 337 336 335 336 337 336 336 336 337 337 338 339 338 338 337 337 339 339 340 340 339 338 339 339 339 338 339 339 338 338 339 337 336 337 338 338 337 337 338 337 337 337 336 335 334 334 334 333 333 334 334 334 334 334 333 333 334 334 335 334
337 337 335 334 335 336 336 336 337 337 337 336 337 339 339 338 339 339 339 340 340 340 340 340 340 340 339 338 338 338 338 338 338 338 338 338 339 339 338 338 339 338 338 338 337 336 336 335 335 335 334 334 334 334 334 334 333 333 334 334 334 334
337 336 334 336 337 337 337 336 336 337 337 339 339 339 339 339 340 340 340 340 339 339 341 341 340 341 340 338 338 338 338 338 338 338 338 338 339 339 339 338 339 338 338 338 338 338 338 337 337 336 336 335 336 336 335 335 334 334 334 334 334 335
337 335 334 338 338 337 337 336 336 336 337 339 339 339 339 339 339 340 340 341 341 340 341 341 340 340 340 339 338 338 338 338 338 338 338 338 338 338 338 338 338 338 338 339 338 338 338 338 338 337 337 337 337 337 337 337 337 337 336 336 337 336
336 334 335 338 337 336 337 336 337 338 338 339 339 338 339 339 339 341 341 340 341 341 340 340 340 340 339 339 338 338 337 337 338 338 338 338 337 337 337 338 338 338 339 339 338 338 338 338 338 338 337 337 338 337 337 338 338 338 338 338 338 338
336 336 336 338 337 337 338 338 338 339 339 339 338 338 338 339 339 340 341 341 341 340 339 338 339 339 339 339 338 338 337 337 337 338 337 337 337 338 338 338 338 338 337 337 337 338 338 338 338 338 338 337 337 337 337 337 337 337 337 337 338 339
337 337 338 338 338 339 339 338 338 339 339 338 338 338 338 338 339 339 339 339 341 341 340 339 339 339 339 339 338 337 337 336 337 338 336 336 337 337 337 337 337 337 336 336 336 337 337 337 336 336 336 336 336 336 336 336 336 336 335 336 337 338
337 338 338 338 338 339 339 338 338 339 339 338 337 338 338 338 338 339 338 337 339 340 340 340 340 339 339 339 338 337 338 337 337 338 337 337 337 336 336 335 336 336 335 335 335 335 335 335 334 335 334 334 334 335 335 335 335 335 335 336 336 336
337 338 339 338 338 338 338 338 339 338 338 337 337 338 338 338 338 338 337 337 338 339 339 340 339 338 338 338 338 338 338 338 337 337 337 336 336 335 335 335 335 335 334 334 335 335 333 333 333 333 333 333 333 333 334 334 334 334 334 335 336 336
338 339 338 338 338 337 337 338 338 338 337 337 337 337 337 337 337 337 336 337 337 338 338 338 338 338 338 337 337 336 336 336 336 335 335 335 335 334 334 334 334 334 333 334 333 332 330 331 332 332 333 333 333 333 333 334 334 334 334 335 335 336
339 338 337 337 337 337 337 337 338 337 337 337 337 337 336 336 336 335 336 335 336 336 336 337 337 337 337 336 335 335 335 334 334 334 334 333 333 332 332 332 331 331 331 332 330 328 328 329 330 330 331 331 331 332 332 334 334 334 335 335 335 336
338 338 337 337 337 337 337 337 337 337 337 336 336 336 335 335 335 335 335 334 334 335 335 335 335 335 335 334 333 333 333 333 332 332 331 331 330 329 329 329 329 328 328 329 327 327 327 327 328 327 327 328 328 329 332 334 334 333 333 333 333 334
336 337 337 337 338 338 337 336 335 336 336 335 335 335 335 334 334 335 334 333 333 332 332 333 332 332 333 332 331 331 330 330 329 329 329 328 327 327 326 326 326 326 325 325 325 325 325 325 326 326 327 328 325 326 332 334 332 328 328 330 329 329
336 337 337 337 338 337 337 336 336 336 336 335 335 335 334 334 334 333 332 331 330 329 329 330 329 329 329 329 329 329 328 326 325 325 325 324 325 325 324 324 324 324 323 323 324 324 323 324 324 325 327 328 327 326 328 330 328 325 325 327 326 326
336 337 336 336 337 336 336 336 336 336 335 335 335 334 334 333 332 331 329 328 327 326 326 326 326 326 326 326 326 326 325 323 323 323 323 322 323 323 323 323 323 322 322 322 323 322 322 321 321 323 326 328 330 330 329 326 323 323 324 324 324 324
336 336 335 336 336 336 335 336 336 335 334 334 334 333 333 331 329 328 327 326 325 325 324 323 323 324 324 324 324 324 323 321 322 322 322 321 322 321 321 321 321 321 321 321 321 321 320 319 317 319 323 325 327 328 327 324 321 322 322 322 322 321
336 335 335 336 336 336 336 335 335 334 334 333 333 332 330 328 327 326 325 325 324 323 323 322 321 322 321 321 321 322 321 319 319 320 320 319 320 319 319 319 318 319 318 318 318 317 316 316 315 316 318 320 323 324 322 319 320 322 320 320 320 317
335 335 335 335 336 336 335 334 334 334 334 333 332 330 329 327 326 325 324 323 323 322 321 320 319 319 319 318 319 319 319 318 317 317 317 318 318 317 317 317 316 316 316 316 315 314 314 314 314 314 315 316 318 319 317 316 317 318 316 317 316 314
335 335 335 335 335 334 334 334 334 335 334 332 331 329 328 327 325 324 323 323 321 319 319 318 317 317 316 316 316 317 317 316 316 316 317 317 316 316 316 315 314 315 315 314 313 313 313 313 312 313 313 314 314 314 314 313 314 314 314 314 313 312
334 334 334 334 334 333 334 334 334 333 332 331 330 328 327 326 325 324 322 321 319 317 317 316 315 315 315 314 314 315 315 315 314 315 316 315 314 314 315 314 313 314 314 312 312 312 311 312 312 312 312 312 313 313 312 312 311 312 313 313 312 311
333 333 333 333 333 333 333 333 333 332 330 329 329 327 326 325 324 322 320 318 318 316 315 315 314 314 314 313 312 312 313 313 313 314 315 314 312 312 313 313 313 313 313 312 311 311 310 311 311 311 311 311 312 312 311 311 311 311 312 312 311 310
332 333 333 333 333 332 332 332 331 330 328 328 327 326 324 323 322 321 319 317 317 315 314 313 313 312 312 312 311 310 311 311 312 313 313 312 310 310 311 312 312 312 312 311 311 310 310 310 310 310 310 310 310 310 310 310 310 310 311 310 310 309
331 331 332 332 332 331 330 330 329 328 328 327 326 324 323 322 321 319 318 317 316 314 313 311 311 310 310 310 309 309 310 310 311 311 311 310 309 309 311 312 310 310 310 311 310 310 310 309 309 309 309 308 308 308 309 308 308 308 309 308 308 308
328 328 329 329 330 329 328 328 328 327 327 326 325 324 323 322 319 318 317 316 315 314 312 310 309 309 308 308 308 308 308 309 310 310 310 309 308 308 310 310 309 308 309 309 309 309 309 309 308 309 308 307 306 307 308 307 307 307 308 307 307 307
326 326 326 326 326 326 326 326 326 326 326 325 324 323 323 321 318 317 316 316 314 312 311 310 309 308 307 307 308 308 308 308 309 309 308 308 307 307 309 309 308 308 308 307 308 308 308 308 308 308 307 305 305 306 307 306 306 307 306 306 305 305
325 324 324 324 324 324 324 324 324 324 324 323 321 320 319 318 317 316 315 314 313 311 310 310 309 308 307 307 307 307 308 308 308 308 308 308 307 307 308 308 308 308 307 307 307 307 307 308 307 306 305 305 305 306 305 305 305 305 304 304 303 304
323 323 322 322 322 322 322 322 321 321 320 320 319 318 317 316 316 315 314 312 311 309 309 308 308 308 307 306 305 306 307 307 307 307 307 307 307 307 307 307 307 307 307 307 306 307 307 307 306 305 304 304 304 304 304 304 304 303 302 301 301 302
321 321 321 320 321 320 320 320 319 318 318 318 317 316 316 315 315 314 313 311 309 308 307 307 307 307 306 306 305 305 305 306 307 306 307 307 307 307 306 306 307 307 307 306 306 306 306 306 306 305 304 304 303 303 303 302 302 300 299 299 299 300
320 320 319 319 319 319 318 318 317 317 317 316 316 315 314 314 314 313 311 309 308 308 307 306 306 306 306 306 306 305 305 305 306 306 306 306 306 306 306 306 306 306 306 306 305 306 305 305 305 304 303 303 302 302 302 301 299 298 297 297 298 298
Wind_Speed
21 20 20 19 19 19 17 16 15 15 15 14 13 12 12 11 11 10 9 8 7 7 6 6 5 5 7 9 7 6 7 8 9 10 12 12 9 5 3 4 4 3 2 2 2 1 2 3 5 5 4 2 1 2 3 3 4 8 6 5 8 7
20 18 18 18 19 19 17 16 15 15 15 14 13 12 12 11 11 10 8 7 6 4 4 4 4 4 5 8 7 6 6 7 7 7 8 10 10 9 4 2 3 3 2 1 1 0 1 1 3 2 0 1 2 2 2 4 4 7 8 7 8 8
20 18 17 18 18 19 18 16 15 15 14 14 12 12 11 10 10 8 7 6 3 2 4 4 4 3 3 6 6 6 5 5 6 6 6 6 8 8 7 4 1 2 2 2 2 1 2 2 1 1 4 4 4 3 2 3 5 7 9 10 8 8
21 19 18 17 17 18 18 16 15 15 13 13 11 11 10 9 8 7 7 5 3 6 8 6 4 2 1 2 3 4 4 3 3 3 4 5 5 5 5 5 4 2 1 2 3 2 3 4 4 5 6 7 6 4 3 3 5 7 11 13 10 9
20 20 19 18 18 18 16 15 14 13 12 11 10 10 9 7 6 6 6 6 7 8 8 6 6 5 3 1 2 2 2 2 2 2 3 5 5 5 4 3 3 3 3 3 4 5 5 7 8 8 9 10 9 8 7 6 7 9 11 14 13 12
20 18 18 19 19 18 16 13 12 11 10 10 10 9 8 6 7 8 7 8 9 7 6 6 4 4 3 2 2 2 3 4 4 3 4 6 6 6 5 3 5 5 4 4 6 8 9 9 10 11 10 11 11 10 9 9 10 10 11 12 12 11
20 18 18 19 18 17 16 13 10 8 8 8 9 9 9 9 10 9 7 7 8 6 5 4 3 1 1 2 2 2 2 4 4 4 5 6 6 6 5 5 6 6 7 8 9 11 12 11 10 11 11 12 11 10 10 11 11 10 12 13 11 9
20 18 17 17 16 16 15 13 10 8 7 6 8 10 12 11 9 8 7 7 6 4 3 2 3 2 0 1 1 1 1 3 3 4 4 4 5 4 4 5 6 5 6 7 8 9 9 9 7 8 10 11 11 12 12 12 13 12 12 13 12 10
18 17 17 16 16 14 14 13 9 8 8 7 7 10 13 10 7 7 7 6 5 4 3 1 1 1 1 2 2 1 2 2 2 3 2 3 3 3 3 4 6 6 7 8 8 9 8 7 7 7 8 9 10 12 13 12 13 13 12 13 15 15
15 16 18 16 15 15 14 13 9 9 9 6 5 7 10 8 6 7 6 5 5 4 3 2 1 2 2 3 2 2 3 1 1 3 2 2 2 4 5 5 6 7 9 10 10 10 10 9 9 9 10 9 10 11 11 11 12 12 13 15 15 16
14 17 18 15 16 17 15 14 13 15 15 10 6 5 6 7 5 5 5 3 3 3 2 1 1 2 3 4 2 2 3 1 2 3 3 3 3 4 5 6 7 8 9 11 12 11 11 12 12 12 12 11 12 12 13 12 12 12 12 13 14 15
14 17 17 15 18 18 15 14 12 15 16 13 8 4 4 4 4 4 4 4 2 2 3 3 3 4 4 4 4 4 3 2 2 4 5 4 4 4 5 6 7 8 9 10 12 11 11 12 13 13 13 12 13 14 14 13 14 13 11 12 14 15
16 18 15 16 19 19 17 13 10 12 12 12 10 6 3 1 2 3 4 5 4 3 4 4 5 6 5 5 6 7 5 4 5 5 6 6 5 6 6 7 8 9 9 9 10 10 11 13 13 14 13 13 14 14 14 14 14 14 14 15 15 16
17 16 13 15 18 18 17 13 11 13 13 12 9 7 6 2 1 2 3 6 6 5 6 6 7 7 7 7 7 7 7 7 7 8 7 8 8 8 7 8 9 10 10 9 10 10 11 13 13 14 14 14 15 15 15 15 16 17 17 15 14 16
15 13 12 13 17 16 14 12 12 14 15 12 8 8 9 6 3 3 4 5 5 7 7 7 7 7 7 9 7 7 9 9 9 9 9 9 9 9 9 9 10 11 12 11 11 12 12 13 14 14 15 15 15 15 15 16 17 17 16 14 14 16
14 13 12 12 15 15 14 13 13 14 14 11 10 12 10 7 6 5 4 5 5 8 8 7 7 7 8 10 10 9 10 11 10 10 10 10 11 10 11 11 10 12 13 14 14 14 14 15 15 15 15 15 15 16 17 17 17 17 15 14 14 15
15 14 13 13 14 13 13 14 16 16 14 12 13 14 13 10 9 9 9 9 10 11 11 10 10 10 11 11 11 11 10 11 11 10 10 11 11 10 10 10 10 11 12 13 14 15 17 16 15 15 14 15 16 17 18 18 17 16 15 14 13 14
16 15 14 14 14 14 15 16 17 17 16 15 16 16 16 16 14 13 14 13 13 13 13 12 12 12 13 12 12 11 11 11 10 8 8 8 9 8 9 9 10 10 10 12 14 17 18 16 15 14 13 15 15 15 16 16 17 17 15 14 13 13
18 17 16 16 16 15 17 18 19 19 18 18 19 19 20 20 18 17 18 15 13 12 11 12 12 13 14 13 12 11 12 12 10 8 7 7 9 10 10 11 11 11 10 11 15 18 18 17 16 14 13 14 13 13 15 15 15 15 13 13 13 14
20 19 17 17 17 17 20 21 22 22 22 23 22 21 22 21 20 20 17 13 12 11 10 11 12 12 13 13 12 11 11 10 10 9 8 9 10 11 12 12 12 12 12 10 14 19 19 18 17 16 16 15 13 13 13 11 10 9 9 10 13 15
19 19 18 18 18 20 21 22 23 24 24 25 24 23 23 22 20 19 15 12 11 10 10 10 10 10 11 11 11 10 9 9 9 9 9 10 10 10 12 13 12 12 13 13 15 20 22 19 18 20 18 17 16 12 10 9 11 14 16 15 18 18
20 20 18 19 20 21 20 20 21 23 25 25 24 23 23 20 18 17 14 12 12 10 10 9 9 9 9 10 9 8 8 9 9 10 10 9 9 10 12 13 13 12 13 13 14 20 23 19 17 17 13 13 14 11 10 8 9 16 20 17 19 20
22 21 19 20 22 21 19 19 21 22 24 25 24 22 21 18 16 15 14 12 11 11 11 11 10 9 9 9 9 9 10 10 11 11 10 10 11 12 13 14 14 14 14 14 14 19 21 20 19 15 8 6 6 8 9 10 16 21 19 18 19 21
23 21 20 21 22 21 21 21 21 21 22 24 24 22 20 18 15 14 13 12 11 11 11 12 11 11 10 9 9 10 11 11 11 11 10 11 13 14 14 14 14 15 15 16 16 17 17 20 22 16 7 3 3 5 4 9 18 18 15 17 18 20
22 22 21 22 23 23 24 23 23 23 22 23 23 21 21 19 15 14 13 12 10 10 10 10 11 11 10 10 10 10 11 12 13 12 12 12 14 15 15 15 15 15 16 17 15 16 16 18 21 19 12 5 3 3 2 9 14 8 12 16 15 21
23 23 23 24 24 24 24 24 25 24 22 22 20 20 21 19 16 14 12 11 10 9 9 9 10 11 11 11 11 11 13 14 14 14 14 15 16 16 16 16 15 15 17 17 16 17 18 18 18 20 19 13 8 7 5 9 7 5 12 11 12 20
24 24 24 24 23 24 25 24 24 22 21 22 22 21 20 18 15 13 11 9 9 9 9 10 11 12 13 12 12 12 13 14 15 15 16 17 17 16 17 17 15 16 18 18 19 20 19 18 18 19 20 18 16 15 13 12 6 4 8 7 12 19
22 22 21 20 20 22 23 23 23 23 23 23 23 21 19 17 14 11 11 11 11 11 11 12 12 11 13 14 14 13 13 14 15 15 17 18 17 15 16 17 17 18 19 20 20 20 19 19 18 17 18 17 15 15 16 16 12 7 4 5 11 16
20 20 18 18 18 20 22 23 24 25 24 23 21 20 18 16 14 12 14 13 11 11 11 12 13 12 13 15 15 14 14 16 16 16 17 18 17 16 17 18 19 19 20 20 20 20 20 20 18 17 18 18 16 14 14 16 17 13 7 5 7 10
20 20 19 19 20 21 22 24 24 24 25 23 21 19 17 16 14 12 13 12 11 11 11 11 13 13 14 15 15 16 16 17 18 17 18 19 18 17 17 18 19 19 19 20 20 20 20 20 19 19 21 20 18 16 13 13 17 17 11 9 7 7
21 21 20 20 21 22 21 21 21 21 22 21 19 18 18 17 15 13 13 13 12 12 12 13 13 14 15 15 16 17 17 18 18 17 18 20 18 16 17 18 19 19 18 18 19 19 20 19 19 21 23 24 22 21 18 15 17 18 13 10 8 7
22 21 21 21 21 21 21 20 19 19 19 19 18 17 17 17 17 16 16 15 13 13 13 15 15 15 15 15 16 17 18 19 19 18 18 19 19 17 17 18 19 19 18 18 18 18 19 20 20 22 24 24 23 23 22 20 19 19 16 14 12 7
22 20 20 20 20 21 21 20 19 19 18 17 17 17 17 19 20 18 17 15 13 13 13 15 16 16 15 15 16 17 18 19 19 19 18 18 18 17 17 18 18 18 18 18 17 18 19 19 20 21 23 24 23 22 22 21 21 21 20 19 16 11
23 20 19 19 19 19 19 19 18 18 18 18 19 19 19 20 20 19 17 15 14 13 14 14 15 16 15 15 16 17 18 19 19 19 18 18 18 17 17 17 17 17 17 17 17 18 18 19 20 20 21 22 22 22 23 22 23 24 24 22 20 16
22 19 19 19 18 18 17 16 16 16 17 18 19 20 20 19 19 18 17 16 15 14 14 14 14 15 15 15 16 17 18 19 19 19 18 17 17 17 17 17 16 16 16 16 17 17 18 18 19 20 20 21 21 23 25 24 25 26 26 24 23 22
22 20 19 18 18 18 17 15 15 16 17 18 18 18 19 18 17 17 16 15 15 15 15 15 15 15 16 17 18 17 18 19 19 18 17 16 15 15 16 16 16 16 16 16 16 17 17 18 18 20 20 19 21 23 24 24 25 25 26 25 24 24
23 21 19 18 18 17 17 17 16 16 16 16 17 17 17 17 16 15 15 15 16 16 15 15 15 16 17 17 18 18 17 18 18 17 16 16 15 14 15 16 15 16 15 15 16 17 17 17 18 20 20 20 21 22 22 22 23 24 25 25 24 23
Wind_Direction
154 153 155 154 150 149 147 148 148 145 143 144 143 141 141 136 129 120 117 116 111 101 99 94 67 65 62 52 58 62 62 67 69 68 62 60 63 74 133 166 172 164 141 113 96 92 109 129 138 146 146 145 140 347 344 343 354 6 358 267 262 277
150 151 155 154 152 149 148 152 148 147 149 150 147 146 144 137 129 120 118 116 104 93 104 95 55 52 54 47 57 69 66 66 67 67 63 57 54 54 63 144 181 192 207 216 319 280 212 168 144 150 199 310 319 310 336 355 359 356 338 310 284 271
150 152 155 156 156 153 152 154 150 152 155 153 151 149 146 136 129 120 111 102 79 99 130 104 55 25 27 46 57 63 67 69 62 54 55 51 46 45 46 50 127 209 232 259 311 289 215 209 192 295 319 330 334 322 332 345 348 344 320 311 295 271
156 155 158 160 159 158 157 156 154 156 157 154 153 153 150 139 131 119 105 98 114 142 143 128 124 181 305 50 55 48 58 62 49 34 28 22 18 21 27 34 37 39 349 310 323 309 252 257 260 273 300 319 328 326 330 318 322 327 308 298 287 281
157 159 162 162 159 159 155 154 155 155 158 156 153 156 150 140 145 145 141 158 157 153 155 154 172 203 245 336 357 15 25 14 19 11 360 358 356 346 337 347 358 8 24 10 341 323 294 278 272 270 283 306 316 315 315 312 310 305 298 294 284 283
152 155 153 151 152 153 150 150 148 149 155 155 155 152 148 157 178 177 179 188 182 175 172 174 188 209 237 279 309 321 340 343 353 349 335 336 335 334 337 332 315 306 305 314 317 316 310 296 274 268 283 300 305 310 311 308 306 298 300 308 298 289
150 149 143 144 150 151 154 152 148 154 161 165 163 154 160 178 187 189 194 193 186 183 180 176 165 171 203 197 277 282 287 313 330 331 315 314 318 326 347 357 333 313 301 303 310 308 309 309 280 261 284 297 293 303 312 308 305 305 307 311 311 307
155 154 145 148 155 159 163 159 160 177 186 191 190 182 182 184 192 198 197 187 171 157 167 169 134 106 66 204 286 265 273 295 312 322 310 300 313 327 341 353 345 336 332 332 333 321 313 325 312 277 288 293 289 297 303 305 304 304 302 299 303 308
162 161 154 155 159 162 164 159 162 182 187 192 194 191 186 184 193 194 187 177 159 125 122 137 101 56 2 334 340 8 327 307 306 313 311 295 304 317 330 346 340 336 341 339 334 324 315 322 330 317 310 301 298 302 299 303 306 301 292 288 291 295
153 151 154 157 158 156 151 152 153 152 157 169 180 183 182 187 193 187 182 167 155 126 99 106 58 24 1 344 344 359 346 353 344 329 329 317 329 333 333 340 337 339 341 337 330 325 321 319 321 320 318 312 311 314 307 306 311 304 291 285 286 288
148 151 156 151 148 149 148 155 160 148 143 151 171 192 194 196 189 178 174 153 155 132 74 66 70 33 11 1 3 15 4 29 18 358 349 329 340 347 343 343 344 346 344 343 338 331 328 326 327 324 319 318 317 315 312 309 310 308 296 288 291 292
158 165 161 145 144 151 155 158 163 156 150 151 159 200 232 208 177 159 155 137 127 93 44 42 58 43 41 42 44 35 26 46 29 15 3 343 348 1 358 356 353 351 348 345 338 334 338 337 336 332 324 322 321 316 315 315 313 313 308 303 304 303
168 174 165 152 154 161 162 155 151 149 147 143 142 164 203 253 131 128 142 128 93 74 62 71 73 52 48 63 59 38 31 36 32 31 16 3 10 11 6 6 2 355 350 343 338 341 347 344 338 332 326 322 318 315 315 314 312 310 310 311 311 306
171 176 167 159 162 166 164 152 140 138 140 141 135 146 157 133 60 50 100 106 88 72 62 73 88 74 54 61 64 39 34 40 40 39 21 14 19 14 11 8 1 356 353 348 347 350 348 344 340 333 328 322 315 312 310 307 305 305 307 310 306 302
168 171 163 159 164 165 159 144 134 134 138 139 127 130 138 126 104 59 49 70 93 94 73 72 90 90 73 65 57 27 26 33 36 36 24 21 19 14 15 9 5 1 358 358 358 358 352 344 339 335 331 327 321 316 310 306 305 304 306 308 302 300
163 164 155 149 159 160 151 139 132 132 132 129 119 121 124 115 106 91 49 24 65 95 84 72 74 80 80 69 59 42 33 31 34 37 33 30 22 17 16 10 13 11 3 3 1 359 354 347 342 336 331 326 322 317 311 306 305 305 305 304 301 302
157 159 150 139 143 145 142 133 130 131 127 122 119 118 118 109 93 79 67 42 49 69 74 75 75 80 82 73 68 63 52 45 43 46 46 40 31 23 17 8 12 17 13 9 6 3 357 352 346 336 331 328 326 320 314 309 305 305 304 302 303 305
152 153 147 141 135 132 134 129 129 129 122 120 117 114 110 105 96 85 79 67 60 67 73 81 84 87 87 81 79 76 72 66 58 59 62 54 39 26 23 17 15 20 25 25 20 12 3 355 347 340 337 336 331 322 316 313 308 305 303 300 303 309
147 147 145 146 137 131 132 129 127 124 120 117 115 114 109 108 105 94 84 77 75 75 75 81 85 89 87 84 83 81 81 79 70 66 62 53 38 28 24 20 16 14 21 34 27 16 8 358 349 342 339 340 338 334 330 326 320 314 308 306 309 311
142 142 143 147 143 137 134 131 128 125 122 118 116 116 109 106 104 98 95 90 85 80 75 77 77 82 85 82 77 75 78 77 70 60 49 42 35 32 26 16 14 10 10 20 21 18 12 2 354 343 339 346 349 348 356 12 27 20 3 354 349 337
141 143 145 146 146 144 138 133 129 126 123 118 115 114 105 101 102 103 105 97 85 77 74 74 67 72 81 80 72 67 64 61 58 47 40 35 30 33 28 17 12 10 12 14 20 23 15 8 5 350 340 345 351 4 28 49 58 36 19 14 12 7
145 147 147 146 146 145 140 135 131 126 122 115 111 110 105 101 102 101 97 90 84 76 74 74 67 69 75 77 74 65 57 52 49 43 38 37 38 39 31 24 19 18 24 27 31 27 18 19 14 354 339 338 346 1 6 0 358 6 10 8 9 13
149 149 149 149 148 146 140 136 135 130 122 112 108 110 108 104 103 100 95 90 83 74 72 71 69 67 67 75 75 70 66 61 57 55 51 50 53 47 37 35 32 29 30 33 40 33 27 31 22 6 357 348 345 342 345 352 342 347 2 6 8 14
150 149 150 148 145 140 136 134 131 126 120 115 113 113 108 101 100 102 97 89 78 70 67 66 69 69 67 70 71 75 75 66 63 62 59 57 54 47 40 38 35 36 34 33 39 33 31 36 33 30 21 328 325 343 353 350 334 333 359 8 9 13
150 148 147 143 140 138 135 132 125 121 118 116 114 112 106 98 96 98 93 84 72 61 58 60 66 67 65 66 71 82 80 68 64 60 59 60 56 49 45 40 36 40 41 40 42 35 35 38 40 46 44 18 343 359 335 334 330 324 355 2 5 8
149 146 143 140 141 140 138 134 131 128 124 115 108 106 105 101 98 95 88 76 60 51 51 55 65 67 65 67 76 86 82 72 67 64 65 63 58 52 48 44 42 49 49 44 46 44 40 40 44 50 50 50 44 32 6 350 348 321 337 351 3 4
146 144 142 141 141 141 139 137 134 130 125 117 108 106 109 108 102 95 85 69 55 60 66 65 71 74 70 69 76 84 81 74 70 71 70 64 58 57 52 48 51 59 55 47 48 48 43 40 43 46 47 51 48 43 39 33 31 332 328 338 351 358
142 142 142 139 142 143 139 135 130 125 121 118 115 114 115 111 104 94 81 68 58 68 79 75 71 75 75 69 70 78 81 75 72 74 73 64 59 59 56 53 57 61 56 48 48 49 48 45 42 40 40 42 42 43 46 43 36 19 348 316 334 349
135 133 131 128 134 138 134 131 129 124 121 120 119 118 116 111 105 95 87 80 68 68 78 79 73 75 79 73 70 75 79 75 72 75 73 65 60 58 57 55 56 57 54 49 48 49 49 46 43 36 28 25 29 37 44 38 28 23 19 347 337 340
123 120 119 120 125 129 130 130 130 126 122 121 119 115 111 108 106 102 97 91 82 75 77 79 76 76 77 76 73 74 77 75 72 74 71 65 62 59 58 58 55 55 54 49 47 48 48 46 43 36 31 32 37 40 38 30 23 20 21 12 354 339
116 116 118 122 125 127 127 127 125 124 122 120 117 113 111 112 112 112 107 100 95 88 80 76 76 76 76 76 75 74 76 75 72 73 70 64 61 60 63 62 56 54 54 52 48 47 47 46 42 39 41 46 46 44 39 33 26 21 21 15 355 342
115 116 118 120 121 121 120 119 118 118 117 117 115 115 120 124 125 120 113 109 106 96 84 77 73 73 74 75 76 75 76 75 72 70 69 64 59 62 68 65 59 54 53 53 51 48 48 47 43 42 46 47 46 45 41 35 28 23 23 16 4 353
115 116 118 119 119 117 115 114 115 117 117 118 118 120 125 128 126 122 117 114 107 97 90 81 75 72 72 73 75 75 75 74 72 69 69 64 57 61 68 65 60 56 52 53 51 50 51 48 45 45 46 45 44 45 40 34 30 28 29 24 15 4
117 117 117 116 116 113 111 110 111 116 121 122 120 118 119 120 121 119 117 112 104 99 94 86 82 78 73 72 74 77 78 75 73 71 69 66 60 61 66 64 61 58 54 52 52 51 51 51 50 47 44 45 44 43 40 36 36 35 34 29 20 8
121 119 115 114 112 109 111 111 110 115 121 123 120 115 113 115 117 115 114 110 105 101 96 92 90 85 77 74 73 76 79 77 73 71 67 67 66 62 62 62 62 61 57 53 53 52 52 52 51 47 46 47 44 41 42 41 39 36 33 30 24 15
123 122 119 116 115 113 114 117 116 117 119 120 119 116 113 114 115 115 114 112 107 100 95 94 91 87 80 74 72 73 77 77 73 70 68 67 68 65 63 61 60 62 59 54 53 53 52 51 50 52 51 47 42 39 39 38 35 32 31 32 29 22
123 124 123 121 123 123 119 116 116 119 120 119 118 116 115 115 116 117 116 113 108 101 96 93 89 86 81 75 72 70 73 77 74 71 69 67 67 68 66 63 60 61 60 56 55 54 52 49 51 54 50 43 41 38 32 31 33 32 32 31 29 23